Wind_Speed
12 14 16 17 17 17 17 19 21 22 24 25 25 26 28 29 26 25 24 24 24 24 24 25 27 25 23 22 19 17 12 10 9 9 5 7 18 16 37 43 34 61 52
11 13 15 16 15 16 17 18 20 21 22 23 25 25 28 29 26 24 25 24 25 26 26 27 28 27 25 23 21 19 15 10 10 12 5 9 14 13 10 40 37 51 55
11 13 14 15 15 16 16 17 18 21 21 23 25 25 27 29 28 23 24 25 23 24 25 26 28 29 28 26 22 21 16 10 7 11 11 12 9 8 6 7 37 49 47
11 12 13 14 14 15 15 16 18 19 22 23 25 25 26 29 29 25 25 25 24 24 26 25 28 28 25 27 26 25 20 14 8 8 11 10 6 8 3 3 16 37 43
10 12 12 12 13 14 15 15 16 17 19 22 24 25 27 30 29 28 26 26 26 28 27 27 27 29 18 25 28 29 24 20 15 10 11 11 9 5 8 11 2 20 46
10 11 11 12 13 14 14 15 15 17 17 19 22 24 25 31 28 26 27 26 28 30 31 30 30 32 24 24 26 26 26 24 18 15 12 12 8 6 5 8 4 10 28
9 10 11 12 13 13 14 14 15 17 17 18 19 20 21 32 30 26 27 26 29 29 31 33 34 34 29 25 22 21 25 22 19 15 13 12 12 10 7 7 6 8 9
8 9 10 11 12 13 13 14 15 16 16 17 18 20 19 28 30 25 24 24 27 27 29 34 33 35 34 27 22 22 26 27 23 19 15 12 13 11 9 8 8 4 7
6 7 9 10 11 13 13 14 14 15 15 17 17 19 21 24 28 28 24 21 24 26 27 31 33 34 33 30 27 25 24 26 25 18 15 12 10 9 8 7 3 2 7
5 6 7 9 11 12 13 13 14 14 14 15 16 18 20 22 27 28 27 24 22 23 26 28 30 33 32 32 32 29 28 27 26 23 19 17 14 10 9 8 3 2 2
5 6 7 8 10 11 12 12 13 13 13 15 15 16 19 22 23 26 27 27 23 23 26 29 29 30 31 30 31 30 30 26 26 28 28 28 24 17 12 13 11 8 4
6 5 5 7 9 9 11 11 13 13 14 14 15 15 17 19 21 23 24 25 22 21 25 25 26 27 29 29 29 29 30 30 31 31 32 33 33 28 21 16 15 13 13
6 4 4 6 8 9 10 11 12 13 13 14 15 16 17 21 22 22 21 22 22 22 23 23 24 25 27 30 31 31 33 34 35 35 34 33 31 29 24 17 16 14 14
6 4 4 5 6 8 9 10 13 15 14 14 14 17 19 21 24 25 24 22 21 21 20 22 24 26 28 30 32 33 34 35 34 34 32 31 30 30 30 27 24 20 17
6 4 4 4 5 5 9 12 12 15 17 18 18 17 21 23 24 23 23 23 22 22 19 23 27 30 31 32 32 33 32 33 35 33 32 33 32 32 32 29 28 27 27
7 5 4 3 4 4 4 8 11 12 14 16 16 17 18 18 18 18 18 21 21 22 21 25 28 30 30 29 30 31 32 32 31 31 32 32 32 32 31 31 29 29 28
7 6 4 4 3 3 4 4 5 8 10 13 14 15 16 17 17 17 17 21 21 20 22 22 25 26 24 23 24 26 28 29 26 29 31 30 31 31 31 31 31 30 28
8 10 5 5 3 3 1 3 4 6 8 9 10 12 14 14 15 16 16 15 18 20 20 20 20 21 23 23 23 24 24 26 28 27 30 30 30 30 31 30 30 29 28
9 8 7 6 4 3 2 2 3 4 5 6 7 9 10 10 13 14 15 17 17 17 17 18 19 19 19 20 23 24 25 27 27 28 30 29 29 30 31 30 28 28 27
9 8 6 5 4 4 3 2 1 1 2 3 5 6 7 8 10 12 15 15 16 16 15 16 17 18 19 19 21 23 23 25 26 25 26 28 28 27 27 29 29 29 30
9 9 8 6 6 5 5 4 3 2 1 1 2 3 5 6 7 9 11 12 13 13 14 14 15 16 18 19 20 21 23 24 24 24 25 27 28 26 25 26 27 28 29
11 10 11 9 8 8 7 6 5 4 3 2 1 1 2 3 4 6 7 8 10 10 11 12 13 14 15 17 18 20 21 22 23 23 23 24 25 24 24 25 25 27 27
13 12 12 12 11 10 9 9 8 7 6 4 4 3 2 1 1 2 4 5 6 7 8 9 10 12 13 14 15 17 18 19 20 21 21 22 23 24 24 25 25 26 26
15 14 13 13 13 12 11 11 10 9 8 7 6 6 5 4 3 2 1 2 3 4 5 6 7 9 10 11 12 14 15 16 17 18 19 20 20 21 22 23 24 24 25
18 17 16 16 15 14 13 13 13 12 11 10 9 9 8 8 7 6 4 3 3 2 3 4 5 6 7 8 9 10 12 13 14 15 16 17 18 19 19 20 21 21 23
21 19 18 17 16 14 15 14 14 14 14 13 13 12 12 11 10 9 8 7 6 4 3 3 3 4 5 6 7 9 10 11 12 13 13 15 16 17 19 20 20 21 22
Wind_Direction
8 6 6 5 7 5 6 4 3 2 1 359 14 15 12 9 14 14 15 12 11 9 11 10 11 14 16 15 16 16 19 13 356 351 339 38 153 165 227 228 212 209 209
10 9 8 6 8 9 9 7 5 5 5 4 17 15 13 12 15 16 15 13 14 10 10 11 10 13 20 24 20 19 19 17 6 356 354 29 161 195 164 219 223 211 206
14 13 10 11 11 11 11 9 9 7 10 6 19 16 13 13 15 23 19 15 15 12 14 15 8 12 18 22 24 22 24 31 33 17 4 40 75 145 215 226 224 201 215
18 16 14 14 12 11 11 11 13 10 8 9 19 17 16 12 16 24 25 19 17 18 16 22 12 13 19 19 23 19 23 27 39 43 34 37 63 68 71 272 201 193 199
23 22 18 15 13 12 13 13 13 15 13 8 13 17 16 16 20 27 28 19 20 22 22 25 17 19 31 33 24 17 21 31 38 51 31 33 34 39 355 14 359 198 200
30 26 21 18 16 15 13 15 15 15 15 15 15 13 15 18 23 33 30 24 25 25 23 28 25 25 31 40 29 20 23 30 33 50 43 32 34 7 0 355 357 114 184
37 30 25 22 21 19 16 17 18 17 16 16 15 18 14 20 24 33 32 22 29 25 24 27 30 29 30 39 33 33 33 38 38 38 41 33 26 15 340 296 345 5 140
45 37 30 27 25 22 21 21 18 19 20 18 17 16 21 19 24 33 35 22 30 26 28 27 33 31 31 37 38 42 45 43 39 39 40 35 28 27 348 337 291 339 89
57 45 35 33 29 25 26 23 22 21 22 21 19 18 24 14 24 29 35 31 28 29 31 29 33 34 33 36 40 45 47 50 47 45 41 38 33 17 16 334 293 320 111
79 58 42 37 34 28 27 25 23 24 23 22 20 21 15 23 22 31 34 33 28 28 32 35 36 39 36 38 41 44 49 46 49 53 57 59 59 44 29 37 357 280 163
99 78 55 41 39 31 30 28 27 26 25 26 23 20 22 13 23 30 31 34 36 28 31 35 36 41 40 42 46 47 51 54 55 55 55 55 56 59 58 48 39 43 75
120 95 68 49 49 36 34 30 31 28 27 27 24 23 21 20 25 36 31 32 35 28 30 34 37 42 45 45 49 53 53 54 55 54 53 50 49 46 48 53 51 44 39
128 107 73 52 48 42 41 34 34 36 32 29 25 24 21 22 34 39 40 34 33 35 28 36 41 43 47 49 49 48 51 50 48 49 50 50 48 46 51 61 64 58 47
137 118 87 68 66 49 47 43 39 44 44 35 33 28 31 27 31 35 37 39 40 40 33 35 43 45 47 47 48 47 49 47 46 44 47 51 49 48 46 45 47 48 52
147 135 110 80 76 48 41 48 38 40 42 40 39 33 33 32 29 27 32 39 43 42 32 40 45 45 43 43 43 41 45 47 44 45 44 46 46 45 45 45 47 44 42
154 141 142 103 86 78 42 26 36 36 40 39 38 38 36 35 35 33 35 44 47 45 42 41 41 40 36 34 34 34 37 42 38 39 41 46 41 40 40 41 46 46 41
158 160 152 124 107 83 68 64 20 41 36 37 37 36 37 36 37 34 38 42 42 45 44 40 40 38 32 32 32 32 33 36 37 37 39 42 42 40 38 35 37 40 38
174 171 154 149 145 103 74 56 46 38 35 30 34 34 37 34 36 39 42 49 45 44 42 40 38 36 35 33 34 34 36 38 40 37 39 41 44 38 37 36 34 33 28
185 178 178 177 176 170 141 78 53 44 36 31 27 29 35 36 39 41 43 50 47 44 39 40 40 40 39 38 41 40 37 38 41 42 41 37 41 37 36 36 35 34 31
200 197 197 191 182 183 177 159 111 54 33 20 19 26 30 33 37 39 42 46 48 47 47 43 42 43 43 43 42 44 44 42 39 40 39 37 41 37 32 34 32 30 29
212 203 204 203 201 199 201 202 203 204 211 322 4 23 30 38 37 39 42 45 48 47 48 49 48 48 47 46 46 45 43 45 43 42 39 36 34 35 31 31 31 29 26
214 208 207 208 212 212 212 214 220 221 229 239 284 338 17 32 36 34 37 40 45 48 49 49 50 49 50 51 50 47 45 42 40 37 39 36 33 30 29 27 26 24 22
216 214 210 210 213 219 220 223 225 227 230 237 251 264 278 318 352 11 18 27 36 40 44 46 48 46 45 46 46 45 41 37 36 34 37 35 32 31 30 27 24 22 19
218 217 215 213 221 225 226 228 229 231 235 241 244 248 253 255 257 266 305 347 3 21 30 34 38 39 38 37 38 37 35 31 30 31 32 36 33 30 27 25 21 17 13
221 221 220 222 228 229 233 234 233 238 239 244 246 247 248 248 250 251 252 259 283 323 348 6 14 20 20 22 25 27 27 24 24 25 25 28 23 22 20 18 14 13 9
227 224 225 227 235 235 238 239 243 244 245 246 247 248 248 248 249 250 249 250 254 261 273 295 321 342 352 359 4 6 9 9 12 13 11 14 10 8 7 6 4 4 1
Height
1557 1554 1550 1546 1543 1540 1536 1532 1526 1520 1514 1506 1500 1495 1491 1485 1479 1474 1469 1465 1461 1457 1453 1448 1444 1439 1434 1430 1426 1423 1419 1419 1422 1423 1426 1425 1430 1435 1439 1445 1453 1462 1473
1557 1554 1550 1546 1543 1541 1537 1533 1528 1522 1516 1509 1502 1498 1493 1488 1482 1477 1472 1468 1464 1460 1455 1451 1446 1442 1438 1433 1428 1425 1424 1424 1424 1427 1429 1425 1424 1430 1432 1441 1449 1452 1465
1558 1555 1551 1547 1544 1541 1538 1535 1531 1525 1519 1511 1505 1501 1496 1490 1484 1479 1476 1472 1468 1464 1459 1453 1448 1441 1438 1437 1436 1431 1430 1427 1427 1427 1427 1421 1424 1428 1435 1439 1442 1446 1457
1558 1555 1551 1548 1545 1542 1539 1536 1532 1528 1522 1515 1509 1504 1499 1493 1487 1483 1479 1475 1471 1466 1462 1457 1452 1446 1442 1438 1435 1434 1430 1428 1426 1426 1423 1424 1427 1429 1434 1439 1441 1440 1452
1558 1555 1553 1550 1547 1544 1541 1537 1534 1530 1526 1521 1513 1508 1503 1496 1490 1486 1482 1478 1473 1468 1463 1458 1456 1450 1445 1442 1439 1435 1431 1427 1425 1424 1427 1425 1427 1429 1435 1435 1436 1435 1445
1559 1556 1554 1551 1549 1545 1542 1539 1536 1532 1529 1525 1520 1513 1508 1501 1496 1491 1487 1482 1477 1472 1467 1462 1457 1452 1448 1444 1444 1440 1433 1427 1431 1429 1431 1431 1434 1436 1436 1437 1437 1432 1444
1559 1557 1555 1553 1550 1547 1544 1541 1538 1534 1531 1528 1524 1519 1514 1507 1501 1495 1492 1488 1482 1478 1473 1468 1460 1457 1453 1448 1447 1444 1441 1438 1437 1435 1434 1437 1436 1435 1437 1439 1439 1439 1438
1559 1558 1556 1554 1551 1549 1546 1543 1540 1537 1534 1531 1527 1522 1519 1511 1506 1501 1497 1493 1488 1484 1479 1474 1470 1464 1457 1453 1452 1451 1447 1445 1442 1441 1440 1441 1438 1438 1439 1441 1442 1443 1440
1559 1558 1556 1554 1552 1550 1547 1545 1542 1540 1537 1534 1531 1527 1521 1516 1511 1506 1501 1498 1494 1489 1485 1480 1475 1469 1465 1462 1456 1451 1452 1449 1447 1446 1445 1443 1441 1442 1443 1443 1445 1445 1444
1558 1557 1557 1555 1553 1551 1549 1547 1545 1543 1540 1538 1535 1531 1527 1521 1515 1510 1504 1501 1499 1495 1490 1486 1483 1478 1473 1467 1462 1459 1457 1456 1454 1451 1448 1445 1443 1444 1445 1446 1444 1446 1447
1557 1557 1556 1556 1554 1553 1551 1549 1548 1545 1543 1541 1538 1535 1531 1526 1521 1515 1510 1506 1503 1500 1495 1491 1487 1483 1479 1475 1471 1468 1465 1462 1460 1456 1453 1451 1448 1448 1449 1449 1448 1448 1448
1558 1558 1558 1557 1556 1555 1554 1552 1550 1548 1546 1543 1541 1538 1534 1530 1525 1520 1516 1512 1508 1505 1501 1498 1494 1490 1487 1483 1479 1475 1470 1467 1463 1459 1458 1455 1453 1454 1454 1453 1452 1452 1450
1560 1560 1559 1558 1558 1556 1555 1554 1551 1550 1548 1546 1543 1539 1537 1533 1529 1525 1520 1516 1513 1511 1508 1504 1501 1497 1492 1487 1483 1480 1476 1472 1469 1466 1465 1463 1464 1464 1462 1459 1456 1455 1453
1561 1562 1561 1560 1560 1559 1557 1556 1552 1550 1548 1546 1544 1542 1539 1536 1532 1529 1525 1521 1518 1515 1513 1510 1505 1502 1498 1495 1490 1486 1482 1480 1477 1475 1473 1471 1470 1467 1464 1462 1460 1459 1458
1562 1563 1562 1562 1562 1561 1558 1556 1555 1553 1551 1549 1547 1544 1541 1538 1535 1533 1529 1525 1522 1520 1518 1515 1510 1505 1502 1500 1496 1493 1491 1487 1485 1483 1480 1476 1475 1473 1470 1469 1467 1465 1463
1562 1563 1563 1564 1563 1563 1562 1558 1557 1555 1553 1552 1550 1548 1545 1543 1540 1537 1534 1530 1527 1524 1521 1517 1514 1511 1508 1505 1501 1500 1497 1494 1493 1490 1488 1484 1483 1480 1477 1477 1474 1472 1470
1562 1563 1562 1563 1564 1564 1563 1562 1560 1558 1556 1554 1553 1551 1548 1545 1543 1540 1537 1533 1531 1529 1526 1523 1520 1518 1517 1515 1512 1508 1504 1501 1501 1497 1495 1490 1488 1486 1484 1483 1481 1478 1476
1561 1561 1563 1564 1563 1563 1562 1561 1561 1559 1558 1556 1554 1553 1550 1548 1546 1543 1540 1538 1535 1532 1530 1528 1526 1523 1520 1517 1515 1514 1512 1510 1506 1504 1500 1498 1496 1493 1491 1489 1486 1485 1482
1559 1560 1561 1562 1562 1563 1562 1562 1561 1560 1558 1557 1555 1554 1552 1551 1548 1546 1543 1541 1538 1536 1535 1532 1530 1528 1526 1524 1521 1518 1516 1512 1509 1507 1505 1504 1500 1498 1497 1495 1493 1490 1485
1556 1558 1559 1560 1561 1561 1561 1561 1560 1559 1558 1557 1556 1555 1553 1552 1550 1548 1546 1544 1542 1540 1538 1536 1534 1532 1529 1527 1525 1522 1520 1517 1515 1513 1511 1512 1505 1503 1503 1500 1496 1492 1490
1554 1556 1557 1558 1558 1559 1559 1559 1559 1558 1558 1557 1557 1556 1555 1553 1552 1550 1548 1546 1544 1543 1541 1539 1537 1535 1533 1531 1529 1527 1524 1522 1520 1517 1514 1510 1508 1507 1508 1503 1500 1497 1496
1550 1552 1553 1554 1555 1555 1556 1556 1557 1557 1557 1557 1556 1555 1554 1554 1552 1551 1549 1548 1546 1544 1543 1541 1539 1538 1536 1534 1532 1530 1528 1525 1523 1520 1517 1515 1513 1513 1509 1505 1503 1501 1499
1546 1547 1549 1550 1551 1552 1553 1553 1554 1554 1555 1555 1555 1554 1553 1552 1551 1550 1549 1548 1546 1545 1543 1542 1541 1539 1538 1536 1534 1532 1530 1528 1525 1523 1521 1518 1516 1513 1509 1508 1506 1504 1503
1543 1544 1546 1547 1548 1549 1550 1551 1552 1552 1552 1552 1552 1551 1551 1550 1550 1549 1548 1547 1546 1545 1544 1542 1541 1540 1538 1537 1535 1533 1532 1530 1528 1525 1522 1520 1518 1516 1513 1511 1509 1507 1505
1538 1539 1540 1541 1543 1545 1546 1547 1548 1549 1549 1549 1549 1548 1548 1547 1547 1547 1547 1546 1545 1544 1543 1542 1541 1540 1539 1537 1536 1534 1532 1531 1529 1527 1524 1522 1521 1519 1517 1514 1512 1510 1507
1532 1534 1537 1540 1540 1542 1543 1544 1544 1544 1544 1544 1544 1544 1544 1544 1544 1544 1544 1543 1543 1542 1541 1541 1540 1539 1538 1537 1535 1534 1532 1531 1529 1527 1525 1523 1521 1519 1517 1515 1512 1509 1507